Weather in Novotroitskoye

Russia / Republic of Khakassia     53°09′07″N   91°03′02″E
temp.,
°C
wind,
m/s
gust,
m/s
humid.,
%
clouds,
%
prec.,
mm/h
press.,
hPa
HPBL,
m
16 may, sun
sun1601:00+15sw6136497 0.0 1019458
04:00+13sw6146890 0.0 1018436
07:00+13sw5136999 0.2 1017398
10:00+17wsw71355100 0.1 1016795
13:00+17sw51061100 2.1 1015825
16:00+23w8123849 0.0 10112416
19:00+22wsw81343100 0.0 10091348
22:00+16nw61273100 2.4 1012707
17 may, mon
mon1701:00+14sw81579100 3.6 1012573
04:00+13sw2691100 4.6 1012229
07:00+13wsw2792100 8.4 1012241
10:00+13sw1298100 7.5 1012123
13:00+13nne4594100 12.9 1013320
16:00+11ne1292100 0.8 1013209
19:00+13ene2287100 1.3 1014265
22:00+12e1192100 0.4 101511
18 may, tue
tue1801:00+11s119493 1.1 101422
04:00+10sw2296100 0.0 101324
07:00+12sw3988100 0.0 1012300
10:00+13sw41089100 2.4 1009364
13:00+16wsw81576100 3.8 1006636
16:00+18wsw71569100 1.6 1003480
19:00+18wsw81670100 3.3 1002566
22:00+14sw101883100 2.3 1003503
19 may, wed
wed1901:00+14sw91784100 3.6 1002483
04:00+13wsw7158755 0.6 1002380
07:00+13wsw51186100 1.9 1002401
10:00+12nne3597100 4.3 1001315
13:00+8n5891100 13.4 1005619
16:00+7n5790100 2.3 1005680
19:00+6n4793100 7.1 1007864
22:00+6nnw5983100 4.2 1009837
20 may, thu
thu2001:00+6w2376100 4.6 1010108
04:00+4nnw4873100 0.1 1011490
07:00+4nnw3664100 0.1 1013994
10:00+5nne334999 0.1 10151607
13:00+4w5684100 1.1 1015691
16:00+4nne8885100 1.4 1015727
19:00+4wsw2362100 1.5 1017652
22:00+2sw588199 0.3 1019299